Location: Bremen
(53.0793°N, 8.8017°E)
Time: 11:55:30
(UTC+02:00)

Transit 2A Rocket - Pass Details

Date: 19 June 2024
Orbit: 582 x 910 km, 66.7° (Epoch: 19 July)

Event Time Altitude Azimuth Distance (km) Brightness Sun altitude
Rises 02:02:53 0° 283° (WNW) 3,281 8.3 -13.1°
Reaches altitude 10° 02:05:46 10° 298° (WNW) 2,411 7.8 -13.0°
Maximum altitude 02:10:08 23° 349° (N) 1,757 7.8 -12.9°
Drops below altitude 10° 02:14:44 10° 40° (NE) 2,553 8.7 -12.8°
Sets 02:17:53 0° 55° (NE) 3,525 9.2 -12.7°
